| time (UTC) | temp F | wind direction | speed MPH | gust MPH | rain 1hr in | rain 24hr in | rain mn in | humidity % | barometer mb |
| 20260505182736 | 52 | 91 | 19.0 | 25.0 | 0.00 | 0.00 | 0.00 | 77 | 1010.7 |
| 20260505181740 | 52 | 90 | 17.0 | 22.0 | 0.00 | 0.00 | 0.00 | 78 | 1010.9 |
| 20260505180736 | 52 | 91 | 13.0 | 17.0 | 0.00 | 0.00 | 0.00 | 79 | 1011.2 |
| 20260505175736 | 52 | 90 | 15.0 | 17.0 | 0.00 | 0.00 | 0.00 | 78 | 1011.2 |
| 20260505174737 | 51 | 90 | 15.0 | 19.0 | 0.00 | 0.00 | 0.00 | 78 | 1011.2 |
| 20260505173738 | 51 | 93 | 15.0 | 18.0 | 0.00 | 0.00 | 0.00 | 79 | 1011.5 |
| 20260505172738 | 51 | 96 | 16.0 | 18.0 | 0.00 | 0.00 | 0.00 | 79 | 1011.7 |
| 20260505171836 | 51 | 91 | 16.0 | 19.0 | 0.00 | 0.00 | 0.00 | 79 | 1011.6 |
| 20260505170839 | 50 | 95 | 17.0 | 19.0 | 0.00 | 0.00 | 0.00 | 79 | 1011.8 |
| 20260505165936 | 50 | 90 | 17.0 | 19.0 | 0.00 | 0.00 | 0.00 | 80 | 1011.8 |
| 20260505164938 | 50 | 90 | 15.0 | 19.0 | 0.00 | 0.00 | 0.00 | 81 | 1012.1 |
| 20260505163938 | 50 | 90 | 16.0 | 19.0 | 0.00 | 0.00 | 0.00 | 81 | 1012.5 |
| 20260505163036 | 50 | 91 | 18.0 | 23.0 | 0.00 | 0.00 | 0.00 | 80 | 1012.7 |
| 20260505162037 | 51 | 93 | 19.0 | 23.0 | 0.00 | 0.00 | 0.00 | 79 | 1012.5 |
| 20260505161136 | 51 | 90 | 21.0 | 26.0 | 0.00 | 0.00 | 0.00 | 78 | 1012.2 |
| 20260505160136 | 51 | 92 | 18.0 | 22.0 | 0.00 | 0.00 | 0.00 | 79 | 1012.2 |
| 20260505152238 | 51 | 90 | 14.0 | 16.0 | 0.00 | 0.00 | 0.00 | 78 | 1013.0 |
| 20260505150337 | 52 | 90 | 18.0 | 21.0 | 0.00 | 0.00 | 0.00 | 77 | 1012.8 |
| 20260505140537 | 51 | 90 | 15.0 | 18.0 | 0.00 | 0.00 | 0.00 | 76 | 1012.9 |
| 20260505123739 | 50 | 90 | 10.0 | 11.0 | 0.00 | 0.00 | 0.00 | 77 | 1012.9 |
| 20260505122737 | 50 | 90 | 9.0 | 10.0 | 0.00 | 0.00 | 0.00 | 77 | 1013.1 |
| 20260505121738 | 50 | 90 | 8.0 | 10.0 | 0.00 | 0.00 | 0.00 | 78 | 1013.1 |
| 20260505120736 | 50 | 90 | 11.0 | 14.0 | 0.00 | 0.00 | 0.00 | 76 | 1013.0 |
| 20260505114738 | 49 | 90 | 11.0 | 13.0 | 0.00 | 0.00 | 0.00 | 76 | 1012.8 |
| 20260505113738 | 49 | 90 | 12.0 | 14.0 | 0.00 | 0.00 | 0.00 | 77 | 1012.8 |
| 20260505112739 | 49 | 90 | 12.0 | 14.0 | 0.00 | 0.00 | 0.00 | 78 | 1012.5 |
| 20260505110836 | 49 | 90 | 14.0 | 15.0 | 0.00 | 0.00 | 0.00 | 78 | 1012.6 |
| 20260505102036 | 47 | 112 | 10.0 | 11.0 | 0.00 | 0.00 | 0.00 | 81 | 1012.5 |
| 20260505101039 | 47 | 112 | 12.0 | 13.0 | 0.00 | 0.00 | 0.00 | 81 | 1012.5 |
| 20260505100049 | 48 | 113 | 12.0 | 14.0 | 0.00 | 0.00 | 0.00 | 80 | 1012.3 |
| 20260505095037 | 48 | 112 | 14.0 | 16.0 | 0.00 | 0.00 | 0.00 | 79 | 1012.3 |
| 20260505093037 | 48 | 90 | 13.0 | 14.0 | 0.00 | 0.00 | 0.00 | 78 | 1012.1 |
| 20260505091037 | 48 | 90 | 13.0 | 14.0 | 0.00 | 0.00 | 0.00 | 79 | 1012.0 |
| 20260505085037 | 47 | 90 | 11.0 | 13.0 | 0.00 | 0.00 | 0.00 | 80 | 1012.1 |
| 20260505084039 | 48 | 90 | 9.0 | 11.0 | 0.00 | 0.00 | 0.00 | 77 | 1012.2 |
| 20260505083037 | 49 | 90 | 8.0 | 9.0 | 0.00 | 0.00 | 0.00 | 76 | 1012.1 |
| 20260505081037 | 49 | 90 | 7.0 | 8.0 | 0.00 | 0.00 | 0.00 | 76 | 1012.1 |
| 20260505075136 | 49 | 90 | 9.0 | 11.0 | 0.00 | 0.00 | 0.00 | 76 | 1012.0 |
| 20260505074139 | 49 | 90 | 8.0 | 11.0 | 0.00 | 0.00 | 0.00 | 75 | 1012.0 |
| 20260505073235 | 49 | 90 | 9.0 | 9.0 | 0.00 | 0.00 | 0.00 | 76 | 1012.1 |
| 20260505072335 | 49 | 90 | 9.0 | 10.0 | 0.00 | 0.00 | 0.00 | 75 | 1012.1 |
| 20260505071337 | 49 | 90 | 8.0 | 10.0 | 0.00 | 0.00 | 0.00 | 75 | 1012.1 |
| 20260505070436 | 49 | 90 | 8.0 | 10.0 | 0.00 | 0.00 | 0.00 | 76 | 1012.0 |
| 20260505065437 | 49 | 90 | 7.0 | 8.0 | 0.00 | 0.00 | 0.00 | 75 | 1012.0 |
| 20260505064438 | 49 | 90 | 8.0 | 9.0 | 0.00 | 0.00 | 0.00 | 76 | 1012.0 |
| 20260505063537 | 49 | 90 | 8.0 | 10.0 | 0.00 | 0.00 | 0.00 | 75 | 1012.0 |
| 20260505062539 | 49 | 90 | 10.0 | 11.0 | 0.00 | 0.00 | 0.00 | 76 | 1011.9 |
| 20260505060638 | 49 | 90 | 9.0 | 10.0 | 0.00 | 0.00 | 0.00 | 76 | 1011.8 |
| 20260505055735 | 49 | 90 | 9.0 | 10.0 | 0.00 | 0.00 | 0.00 | 76 | 1011.8 |
| 20260505054737 | 49 | 90 | 9.0 | 10.0 | 0.00 | 0.00 | 0.00 | 75 | 1011.8 |
| 20260505053738 | 49 | 90 | 8.0 | 9.0 | 0.00 | 0.00 | 0.00 | 75 | 1011.8 |
| 20260505052836 | 49 | 90 | 8.0 | 9.0 | 0.00 | 0.00 | 0.00 | 74 | 1011.6 |
| 20260505051839 | 49 | 90 | 6.0 | 8.0 | 0.00 | 0.00 | 0.00 | 75 | 1011.5 |
| 20260505050936 | 49 | 90 | 6.0 | 8.0 | 0.00 | 0.00 | 0.00 | 75 | 1011.5 |
| 20260505041135 | 49 | 90 | 9.0 | 10.0 | 0.00 | 0.00 | 0.00 | 75 | 1011.5 |
| 20260505040138 | 49 | 270 | 9.0 | 11.0 | 0.00 | 0.00 | 0.00 | 75 | 1011.4 |
| 20260505034229 | 49 | 90 | 10.0 | 12.0 | 0.00 | 0.00 | 0.00 | 74 | 1011.4 |
| 20260505033229 | 50 | 90 | 9.0 | 11.0 | 0.00 | 0.00 | 0.00 | 73 | 1011.3 |
| 20260505032229 | 50 | 90 | 9.0 | 11.0 | 0.00 | 0.00 | 0.00 | 73 | 1011.3 |
| 20260505025328 | 48 | 90 | 5.0 | 7.0 | 0.00 | 0.00 | 0.00 | 77 | 1011.4 |
| 20260505024328 | 48 | 360 | 2.0 | 3.0 | 0.00 | 0.00 | 0.00 | 75 | 1011.7 |
| 20260505023329 | 48 | 90 | 4.0 | 5.0 | 0.00 | 0.00 | 0.00 | 76 | 1011.4 |
| 20260505022329 | 47 | 89 | 6.0 | 7.0 | 0.00 | 0.00 | 0.00 | 80 | 1011.3 |
| 20260505021330 | 47 | 360 | 4.0 | 5.0 | 0.00 | 0.00 | 0.00 | 80 | 1011.3 |
| 20260505020428 | 47 | 360 | 5.0 | 5.0 | 0.00 | 0.00 | 0.00 | 78 | 1011.4 |
| 20260505015528 | 47 | 360 | 6.0 | 7.0 | 0.00 | 0.00 | 0.00 | 77 | 1011.4 |
| 20260505014528 | 48 | 360 | 3.0 | 5.0 | 0.00 | 0.00 | 0.00 | 75 | 1011.3 |
| 20260505013628 | 48 | 1 | 4.0 | 5.0 | 0.00 | 0.00 | 0.00 | 74 | 1011.1 |
| 20260505012629 | 48 | 45 | 4.0 | 5.0 | 0.00 | 0.00 | 0.00 | 74 | 1011.1 |
| 20260505010727 | 48 | 90 | 0.0 | 0.0 | 0.00 | 0.00 | 0.00 | 74 | 1011.0 |
| 20260505005728 | 48 | 82 | 5.0 | 6.0 | 0.00 | 0.00 | 0.00 | 75 | 1010.8 |
| 20260505004827 | 48 | 45 | 6.0 | 7.0 | 0.00 | 0.00 | 0.00 | 74 | 1010.8 |
| 20260505003830 | 48 | 67 | 8.0 | 9.0 | 0.00 | 0.00 | 0.00 | 75 | 1010.7 |
| 20260505002829 | 49 | 90 | 9.0 | 11.0 | 0.00 | 0.00 | 0.00 | 75 | 1010.6 |
| 20260505001927 | 49 | 90 | 9.0 | 10.0 | 0.00 | 0.00 | 0.00 | 74 | 1010.4 |
| 20260505000930 | 49 | 90 | 10.0 | 11.0 | 0.00 | 0.00 | 0.00 | 72 | 1010.3 |
| 20260504235928 | 50 | 112 | 6.0 | 7.0 | 0.00 | 0.00 | 0.00 | 71 | 1010.1 |
| 20260504234027 | 50 | 45 | 4.0 | 5.0 | 0.00 | 0.00 | 0.00 | 71 | 1009.7 |
| 20260504233027 | 50 | 45 | 7.0 | 8.0 | 0.00 | 0.00 | 0.00 | 72 | 1009.4 |
| 20260504232027 | 50 | 360 | 7.0 | 7.0 | 0.00 | 0.00 | 0.00 | 71 | 1009.5 |
| 20260504231028 | 50 | 360 | 4.0 | 5.0 | 0.00 | 0.00 | 0.00 | 72 | 1009.4 |
| 20260504225028 | 52 | 45 | 8.0 | 9.0 | 0.00 | 0.00 | 0.00 | 71 | 1009.1 |
| 20260504224030 | 52 | 45 | 4.0 | 5.0 | 0.00 | 0.00 | 0.00 | 71 | 1009.0 |
| 20260504223029 | 52 | 22 | 2.0 | 3.0 | 0.00 | 0.00 | 0.00 | 71 | 1009.0 |
| 20260504221228 | 53 | 112 | 6.0 | 7.0 | 0.00 | 0.00 | 0.00 | 66 | 1009.0 |
| 20260504220328 | 53 | 112 | 8.0 | 8.0 | 0.00 | 0.00 | 0.00 | 64 | 1009.0 |
| 20260504215329 | 54 | 90 | 5.0 | 6.0 | 0.00 | 0.00 | 0.00 | 62 | 1008.8 |
| 20260504214427 | 55 | 90 | 8.0 | 9.0 | 0.00 | 0.00 | 0.00 | 60 | 1008.8 |
| 20260504214329 | 55 | 90 | 8.0 | 9.0 | 0.00 | 0.00 | 0.00 | 60 | 1008.8 |
| 20260504213427 | 54 | 90 | 9.0 | 10.0 | 0.00 | 0.00 | 0.00 | 61 | 1008.7 |
| 20260504212527 | 55 | 90 | 9.0 | 10.0 | 0.00 | 0.00 | 0.00 | 59 | 1008.7 |
| 20260504211529 | 56 | 90 | 8.0 | 9.0 | 0.00 | 0.00 | 0.00 | 58 | 1008.8 |
| 20260504210527 | 55 | 90 | 8.0 | 10.0 | 0.00 | 0.00 | 0.00 | 62 | 1008.6 |
| 20260504205627 | 54 | 97 | 6.0 | 8.0 | 0.00 | 0.00 | 0.00 | 62 | 1008.7 |
| 20260504204628 | 54 | 90 | 5.0 | 6.0 | 0.00 | 0.00 | 0.00 | 63 | 1008.7 |
| 20260504203628 | 53 | 90 | 9.0 | 10.0 | 0.00 | 0.00 | 0.00 | 65 | 1008.5 |
| 20260504202627 | 53 | 90 | 7.0 | 7.0 | 0.00 | 0.00 | 0.00 | 65 | 1008.5 |
| 20260504201628 | 53 | 90 | 4.0 | 5.0 | 0.00 | 0.00 | 0.00 | 64 | 1008.5 |
| 20260504194727 | 52 | 90 | 8.0 | 8.0 | 0.00 | 0.01 | 0.00 | 66 | 1008.5 |
| 20260504193729 | 51 | 90 | 5.0 | 6.0 | 0.00 | 0.01 | 0.00 | 70 | 1008.6 |
| 20260504192828 | 51 | 90 | 4.0 | 5.0 | 0.00 | 0.01 | 0.00 | 69 | 1008.8 |
| 20260504191926 | 51 | 90 | 5.0 | 6.0 | 0.00 | 0.01 | 0.00 | 69 | 1008.9 |
| 20260504190928 | 52 | 135 | 6.0 | 7.0 | 0.00 | 0.02 | 0.00 | 68 | 1009.0 |
| 20260504185928 | 51 | 172 | 7.0 | 8.0 | 0.00 | 0.02 | 0.00 | 69 | 1009.1 |
| 20260504184928 | 51 | 180 | 5.0 | 6.0 | 0.00 | 0.02 | 0.00 | 66 | 1009.6 |
| 20260504183928 | 52 | 176 | 8.0 | 10.0 | 0.00 | 0.02 | 0.00 | 65 | 1009.5 |